sat.trackr.live / text

‹ back to catalog

STARLINK-11735 [DTC]

NORAD 64130 · 2025-111H

PAYLOAD ACTIVE UNKNOWN

§ Identity

Operator
Country
US
Launch date
2025-05-24
Launch site
AFETR
Launch vehicle
Mass (kg)
RCS (m²)

Purposes: comms

External: N2YO · Heavens-Above · Gunter

§ Orbital elements

Epoch: 2026-05-24T22:57:06.511104Z

Period
91.66 min
Inclination
42.9994°
Eccentricity
0.0001582
Mean motion
15.70983074 rev/d
Perigee alt
355.0 km
Apogee alt
357.2 km
Semi-major
6,734.2 km
B*
2.0774e-3
RAAN
234.1578°
Arg perigee
302.9673°
Mean anomaly
57.1042°
Rev number
5,848

§ Raw data

STARLINK-11735 [DTC]1 64130U 25111H   26144.95632536  .00276837  00000+0  20774-2 0  99942 64130  42.9994 234.1578 0001582 302.9673  57.1042 15.70983074 58487

JSON: /api/v1/satellites/64130 · /tle

For live sub-satellite position, see the globe view (requires WebGL).

§ Visibility from observer

Set your observer location to see the next 7 days of passes ≥ 10°. The values pass through the URL so the page stays shareable.

No JS? Fill the form by hand. The geolocation button needs JavaScript.